QPF
0.02 0.01 0.01 0.01 0.00 0.00 0.00 0.00 0.00 0.00 0.01 0.02 0.04 0.02 0.02 0.02 0.03 0.03 0.03 0.03 0.05 0.06 0.04 0.03 0.02 0.02 0.01 0.02 0.02 0.02 0.02 0.02 0.03 0.02 0.01 0.01 0.01 0.02 0.04 0.05 0.04 0.05 0.05
0.02 0.01 0.01 0.01 0.00 0.00 0.00 0.01 0.01 0.00 0.00 0.01 0.02 0.04 0.04 0.04 0.04 0.04 0.04 0.05 0.07 0.07 0.04 0.03 0.02 0.01 0.01 0.02 0.02 0.04 0.02 0.02 0.02 0.02 0.02 0.02 0.02 0.02 0.03 0.05 0.06 0.07 0.07
0.03 0.03 0.02 0.01 0.02 0.01 0.01 0.01 0.01 0.01 0.00 0.00 0.01 0.02 0.03 0.02 0.03 0.03 0.03 0.04 0.06 0.06 0.05 0.04 0.02 0.01 0.02 0.02 0.03 0.03 0.03 0.03 0.02 0.02 0.03 0.03 0.03 0.03 0.03 0.04 0.07 0.10 0.11
0.05 0.05 0.04 0.03 0.03 0.04 0.02 0.01 0.01 0.01 0.01 0.00 0.00 0.01 0.02 0.01 0.03 0.04 0.03 0.02 0.03 0.03 0.04 0.05 0.04 0.03 0.03 0.02 0.02 0.02 0.02 0.02 0.02 0.02 0.03 0.02 0.02 0.03 0.04 0.05 0.08 0.10 0.11
0.05 0.06 0.05 0.05 0.06 0.05 0.04 0.03 0.02 0.02 0.02 0.01 0.02 0.01 0.01 0.01 0.03 0.04 0.03 0.02 0.02 0.02 0.03 0.04 0.05 0.04 0.03 0.03 0.03 0.01 0.02 0.03 0.02 0.03 0.03 0.02 0.02 0.02 0.03 0.05 0.08 0.11 0.12
0.03 0.04 0.04 0.07 0.08 0.06 0.06 0.07 0.04 0.03 0.03 0.04 0.03 0.03 0.02 0.01 0.02 0.03 0.02 0.01 0.02 0.02 0.03 0.03 0.04 0.03 0.02 0.02 0.03 0.02 0.02 0.02 0.02 0.01 0.01 0.02 0.03 0.03 0.04 0.04 0.06 0.08 0.11
0.02 0.01 0.02 0.04 0.07 0.07 0.06 0.06 0.06 0.06 0.05 0.05 0.05 0.06 0.06 0.04 0.03 0.04 0.03 0.02 0.02 0.03 0.04 0.03 0.02 0.01 0.01 0.01 0.01 0.01 0.01 0.02 0.01 0.01 0.01 0.01 0.02 0.04 0.05 0.05 0.06 0.07 0.09
0.01 0.01 0.01 0.01 0.03 0.04 0.04 0.02 0.03 0.04 0.05 0.05 0.06 0.07 0.07 0.06 0.07 0.05 0.03 0.01 0.01 0.02 0.03 0.02 0.02 0.02 0.01 0.01 0.01 0.01 0.02 0.02 0.01 0.01 0.01 0.01 0.01 0.02 0.03 0.04 0.06 0.06 0.07
0.01 0.00 0.01 0.01 0.02 0.02 0.01 0.01 0.02 0.03 0.04 0.05 0.04 0.05 0.06 0.07 0.07 0.03 0.01 0.01 0.01 0.02 0.02 0.02 0.01 0.01 0.02 0.02 0.01 0.01 0.01 0.01 0.01 0.01 0.01 0.01 0.01 0.01 0.01 0.03 0.05 0.05 0.06
0.01 0.00 0.01 0.01 0.01 0.01 0.01 0.01 0.01 0.01 0.02 0.01 0.01 0.01 0.02 0.02 0.01 0.01 0.01 0.01 0.00 0.01 0.01 0.02 0.01 0.02 0.02 0.01 0.01 0.01 0.01 0.01 0.01 0.01 0.01 0.01 0.01 0.01 0.01 0.01 0.03 0.04 0.04
0.00 0.00 0.01 0.01 0.01 0.01 0.01 0.01 0.01 0.01 0.01 0.01 0.01 0.01 0.01 0.01 0.00 0.00 0.01 0.01 0.01 0.01 0.01 0.02 0.01 0.02 0.03 0.02 0.02 0.02 0.02 0.02 0.02 0.02 0.02 0.01 0.01 0.01 0.01 0.01 0.02 0.03 0.04
0.01 0.01 0.01 0.01 0.01 0.02 0.02 0.03 0.03 0.02 0.01 0.02 0.01 0.01 0.01 0.01 0.01 0.01 0.02 0.01 0.02 0.02 0.01 0.01 0.01 0.02 0.03 0.03 0.03 0.03 0.03 0.04 0.03 0.03 0.02 0.02 0.01 0.01 0.00 0.01 0.01 0.03 0.05
0.01 0.00 0.01 0.01 0.02 0.03 0.03 0.06 0.03 0.02 0.02 0.02 0.02 0.02 0.01 0.01 0.01 0.01 0.01 0.01 0.01 0.01 0.00 0.01 0.01 0.01 0.02 0.02 0.03 0.02 0.03 0.03 0.03 0.02 0.02 0.02 0.01 0.01 0.01 0.01 0.01 0.01 0.03
0.00 0.00 0.00 0.01 0.01 0.02 0.03 0.03 0.02 0.02 0.03 0.03 0.02 0.02 0.02 0.02 0.02 0.02 0.02 0.01 0.01 0.01 0.00 0.00 0.02 0.01 0.02 0.02 0.03 0.03 0.03 0.03 0.03 0.02 0.02 0.02 0.02 0.02 0.02 0.02 0.01 0.01 0.02
0.00 0.00 0.00 0.01 0.01 0.01 0.02 0.01 0.01 0.02 0.03 0.03 0.02 0.02 0.02 0.03 0.03 0.03 0.03 0.03 0.02 0.02 0.01 0.01 0.01 0.01 0.02 0.03 0.03 0.04 0.04 0.04 0.03 0.03 0.03 0.03 0.04 0.03 0.02 0.02 0.02 0.02 0.02
0.00 0.00 0.00 0.01 0.01 0.01 0.01 0.01 0.01 0.01 0.02 0.02 0.03 0.03 0.03 0.02 0.03 0.03 0.04 0.04 0.02 0.02 0.02 0.01 0.01 0.02 0.03 0.04 0.03 0.04 0.04 0.04 0.04 0.04 0.04 0.04 0.04 0.03 0.02 0.02 0.02 0.02 0.03
0.00 0.00 0.01 0.01 0.00 0.01 0.01 0.01 0.01 0.01 0.01 0.02 0.03 0.02 0.02 0.02 0.02 0.02 0.03 0.03 0.03 0.03 0.03 0.04 0.05 0.05 0.04 0.03 0.02 0.02 0.02 0.02 0.03 0.04 0.04 0.03 0.02 0.02 0.01 0.01 0.02 0.02 0.02
0.00 0.00 0.01 0.00 0.00 0.00 0.00 0.00 0.01 0.01 0.01 0.03 0.04 0.04 0.03 0.02 0.01 0.02 0.03 0.04 0.03 0.03 0.05 0.07 0.06 0.03 0.03 0.03 0.03 0.03 0.03 0.01 0.01 0.02 0.03 0.02 0.01 0.01 0.01 0.01 0.01 0.02 0.02
0.00 0.00 0.00 0.00 0.00 0.00 0.00 0.00 0.00 0.01 0.02 0.05 0.06 0.03 0.02 0.02 0.01 0.02 0.03 0.03 0.04 0.04 0.05 0.04 0.02 0.01 0.01 0.02 0.02 0.03 0.02 0.01 0.00 0.01 0.01 0.02 0.02 0.02 0.02 0.03 0.02 0.02 0.02
0.00 0.00 0.00 0.00 0.00 0.01 0.01 0.01 0.01 0.02 0.02 0.02 0.02 0.02 0.01 0.01 0.01 0.02 0.02 0.03 0.03 0.02 0.03 0.02 0.02 0.01 0.00 0.01 0.02 0.03 0.02 0.01 0.01 0.01 0.01 0.02 0.02 0.03 0.04 0.04 0.04 0.03 0.03
0.01 0.00 0.00 0.00 0.00 0.01 0.01 0.01 0.02 0.02 0.02 0.01 0.01 0.01 0.01 0.01 0.01 0.02 0.02 0.02 0.02 0.01 0.01 0.01 0.02 0.03 0.01 0.01 0.01 0.02 0.02 0.01 0.01 0.02 0.02 0.01 0.02 0.03 0.04 0.05 0.05 0.05 0.06
0.01 0.00 0.00 0.00 0.01 0.01 0.01 0.02 0.02 0.02 0.01 0.01 0.01 0.01 0.02 0.02 0.02 0.02 0.03 0.03 0.01 0.01 0.01 0.02 0.02 0.04 0.03 0.02 0.01 0.02 0.02 0.03 0.02 0.02 0.02 0.02 0.02 0.05 0.07 0.06 0.07 0.09 0.10
0.00 0.00 0.00 0.00 0.00 0.00 0.01 0.01 0.01 0.01 0.01 0.01 0.02 0.03 0.03 0.03 0.03 0.03 0.03 0.03 0.02 0.01 0.01 0.02 0.03 0.04 0.04 0.04 0.03 0.03 0.02 0.03 0.03 0.02 0.03 0.04 0.05 0.07 0.10 0.11 0.11 0.10 0.08
0.01 0.00 0.00 0.00 0.00 0.00 0.01 0.01 0.01 0.01 0.01 0.02 0.03 0.04 0.06 0.06 0.06 0.04 0.03 0.03 0.02 0.02 0.02 0.01 0.01 0.01 0.02 0.02 0.02 0.02 0.01 0.02 0.03 0.03 0.04 0.06 0.07 0.08 0.08 0.08 0.05 0.03 0.02
0.00 0.00 0.00 0.00 0.00 0.00 0.01 0.01 0.01 0.01 0.01 0.02 0.05 0.05 0.07 0.07 0.07 0.06 0.04 0.01 0.01 0.01 0.01 0.01 0.01 0.01 0.01 0.02 0.02 0.01 0.01 0.02 0.03 0.04 0.04 0.04 0.04 0.04 0.06 0.06 0.05 0.04 0.04
0.00 0.00 0.00 0.00 0.00 0.01 0.01 0.01 0.01 0.01 0.01 0.01 0.01 0.02 0.02 0.03 0.03 0.03 0.02 0.01 0.00 0.01 0.01 0.01 0.01 0.01 0.01 0.02 0.01 0.01 0.01 0.02 0.02 0.02 0.02 0.02 0.03 0.03 0.03 0.04 0.05 0.05 0.04
MSLP
1018.19 1018.05 1017.90 1017.72 1017.54 1017.36 1017.21 1017.10 1017.06 1017.09 1017.17 1017.28 1017.42 1017.55 1017.65 1017.70 1017.71 1017.68 1017.64 1017.60 1017.59 1017.63 1017.72 1017.87 1018.08 1018.32 1018.59 1018.86 1019.13 1019.38 1019.62 1019.84 1020.05 1020.23 1020.39 1020.52 1020.61 1020.66 1020.66 1020.63 1020.56 1020.46 1020.35
1018.17 1018.09 1017.98 1017.81 1017.60 1017.37 1017.16 1017.00 1016.92 1016.95 1017.06 1017.24 1017.47 1017.68 1017.86 1017.97 1018.00 1017.97 1017.90 1017.83 1017.78 1017.78 1017.86 1018.01 1018.21 1018.46 1018.72 1018.98 1019.23 1019.44 1019.64 1019.82 1020.00 1020.18 1020.36 1020.54 1020.71 1020.85 1020.95 1021.01 1021.02 1020.99 1020.92
1018.01 1018.02 1017.98 1017.85 1017.65 1017.40 1017.15 1016.94 1016.84 1016.86 1016.99 1017.22 1017.50 1017.78 1018.01 1018.15 1018.19 1018.14 1018.03 1017.91 1017.81 1017.78 1017.83 1017.96 1018.16 1018.41 1018.66 1018.90 1019.11 1019.28 1019.43 1019.57 1019.71 1019.88 1020.08 1020.31 1020.55 1020.79 1021.00 1021.16 1021.27 1021.32 1021.31
1017.77 1017.87 1017.91 1017.85 1017.69 1017.44 1017.18 1016.95 1016.82 1016.82 1016.95 1017.20 1017.51 1017.82 1018.07 1018.22 1018.25 1018.17 1018.02 1017.85 1017.70 1017.62 1017.64 1017.75 1017.94 1018.18 1018.42 1018.64 1018.81 1018.93 1019.03 1019.11 1019.22 1019.37 1019.57 1019.84 1020.14 1020.46 1020.77 1021.04 1021.25 1021.39 1021.46
1017.47 1017.68 1017.81 1017.83 1017.72 1017.50 1017.23 1016.99 1016.83 1016.81 1016.93 1017.17 1017.48 1017.79 1018.05 1018.19 1018.20 1018.08 1017.89 1017.67 1017.47 1017.35 1017.34 1017.44 1017.61 1017.84 1018.06 1018.25 1018.39 1018.47 1018.51 1018.54 1018.60 1018.72 1018.91 1019.19 1019.53 1019.91 1020.30 1020.66 1020.96 1021.19 1021.34
1017.17 1017.45 1017.68 1017.78 1017.72 1017.54 1017.28 1017.02 1016.83 1016.78 1016.87 1017.08 1017.37 1017.67 1017.91 1018.04 1018.03 1017.89 1017.67 1017.42 1017.19 1017.05 1017.01 1017.09 1017.25 1017.46 1017.67 1017.83 1017.94 1017.98 1017.97 1017.95 1017.96 1018.03 1018.20 1018.46 1018.81 1019.22 1019.65 1020.07 1020.45 1020.76 1020.99
1016.86 1017.21 1017.51 1017.68 1017.68 1017.52 1017.27 1016.99 1016.78 1016.68 1016.73 1016.90 1017.16 1017.44 1017.66 1017.78 1017.77 1017.63 1017.40 1017.14 1016.91 1016.75 1016.70 1016.77 1016.92 1017.11 1017.31 1017.45 1017.53 1017.54 1017.50 1017.43 1017.39 1017.42 1017.54 1017.76 1018.08 1018.47 1018.91 1019.36 1019.78 1020.16 1020.47
1016.55 1016.95 1017.30 1017.52 1017.55 1017.42 1017.16 1016.87 1016.62 1016.48 1016.47 1016.60 1016.82 1017.07 1017.29 1017.41 1017.40 1017.29 1017.08 1016.84 1016.63 1016.48 1016.44 1016.50 1016.64 1016.83 1017.01 1017.15 1017.21 1017.20 1017.13 1017.03 1016.95 1016.92 1016.98 1017.15 1017.41 1017.76 1018.17 1018.61 1019.05 1019.46 1019.85
1016.24 1016.66 1017.04 1017.28 1017.33 1017.20 1016.94 1016.63 1016.34 1016.15 1016.10 1016.18 1016.36 1016.58 1016.79 1016.92 1016.94 1016.86 1016.70 1016.50 1016.33 1016.21 1016.18 1016.25 1016.39 1016.57 1016.75 1016.88 1016.94 1016.93 1016.85 1016.74 1016.63 1016.56 1016.56 1016.66 1016.85 1017.12 1017.48 1017.88 1018.30 1018.74 1019.18
1015.94 1016.36 1016.73 1016.97 1017.02 1016.89 1016.62 1016.28 1015.96 1015.73 1015.63 1015.66 1015.80 1015.99 1016.18 1016.31 1016.36 1016.33 1016.22 1016.08 1015.95 1015.87 1015.87 1015.95 1016.09 1016.27 1016.45 1016.59 1016.66 1016.66 1016.59 1016.48 1016.36 1016.26 1016.22 1016.25 1016.37 1016.57 1016.84 1017.19 1017.58 1018.02 1018.50
1015.67 1016.06 1016.41 1016.62 1016.65 1016.50 1016.22 1015.87 1015.53 1015.27 1015.12 1015.09 1015.18 1015.32 1015.49 1015.61 1015.68 1015.67 1015.61 1015.52 1015.43 1015.39 1015.42 1015.51 1015.66 1015.84 1016.02 1016.17 1016.26 1016.28 1016.24 1016.15 1016.05 1015.95 1015.88 1015.86 1015.91 1016.03 1016.23 1016.51 1016.86 1017.29 1017.78
1015.47 1015.81 1016.11 1016.27 1016.27 1016.11 1015.82 1015.46 1015.11 1014.82 1014.63 1014.56 1014.58 1014.66 1014.77 1014.87 1014.92 1014.92 1014.87 1014.81 1014.76 1014.75 1014.79 1014.89 1015.04 1015.22 1015.39 1015.55 1015.66 1015.71 1015.71 1015.67 1015.59 1015.51 1015.43 1015.39 1015.39 1015.45 1015.59 1015.80 1016.10 1016.50 1016.99
1015.37 1015.64 1015.87 1015.97 1015.94 1015.76 1015.47 1015.12 1014.77 1014.47 1014.25 1014.11 1014.06 1014.07 1014.10 1014.13 1014.13 1014.11 1014.05 1014.00 1013.96 1013.95 1013.99 1014.09 1014.23 1014.39 1014.56 1014.72 1014.84 1014.93 1014.96 1014.96 1014.93 1014.87 1014.82 1014.77 1014.74 1014.76 1014.84 1015.00 1015.25 1015.61 1016.08
1015.39 1015.58 1015.72 1015.76 1015.69 1015.50 1015.22 1014.89 1014.56 1014.26 1014.01 1013.82 1013.69 1013.61 1013.54 1013.48 1013.40 1013.32 1013.23 1013.15 1013.09 1013.08 1013.11 1013.18 1013.30 1013.44 1013.59 1013.73 1013.85 1013.95 1014.01 1014.05 1014.05 1014.04 1014.01 1013.97 1013.94 1013.93 1013.97 1014.08 1014.28 1014.60 1015.04
1015.54 1015.63 1015.68 1015.65 1015.54 1015.35 1015.09 1014.80 1014.49 1014.20 1013.94 1013.71 1013.50 1013.32 1013.14 1012.97 1012.80 1012.63 1012.49 1012.36 1012.28 1012.24 1012.24 1012.28 1012.36 1012.46 1012.56 1012.67 1012.77 1012.86 1012.93 1012.98 1013.01 1013.03 1013.03 1013.01 1012.98 1012.97 1012.98 1013.06 1013.22 1013.49 1013.89
1015.78 1015.78 1015.74 1015.64 1015.50 1015.31 1015.08 1014.83 1014.56 1014.29 1014.03 1013.76 1013.49 1013.21 1012.93 1012.65 1012.38 1012.13 1011.91 1011.74 1011.61 1011.54 1011.50 1011.50 1011.53 1011.57 1011.61 1011.66 1011.71 1011.76 1011.81 1011.85 1011.89 1011.92 1011.94 1011.94 1011.93 1011.91 1011.92 1011.97 1012.09 1012.32 1012.67
1016.08 1015.99 1015.87 1015.71 1015.54 1015.35 1015.15 1014.94 1014.72 1014.49 1014.23 1013.94 1013.61 1013.26 1012.89 1012.52 1012.16 1011.84 1011.56 1011.34 1011.17 1011.05 1010.98 1010.93 1010.89 1010.86 1010.82 1010.79 1010.76 1010.75 1010.74 1010.75 1010.77 1010.80 1010.82 1010.84 1010.84 1010.83 1010.84 1010.87 1010.97 1011.16 1011.46
1016.41 1016.24 1016.05 1015.85 1015.65 1015.46 1015.28 1015.12 1014.94 1014.73 1014.49 1014.19 1013.83 1013.43 1013.00 1012.56 1012.13 1011.75 1011.42 1011.16 1010.95 1010.80 1010.68 1010.57 1010.47 1010.35 1010.23 1010.10 1009.98 1009.87 1009.79 1009.74 1009.72 1009.73 1009.74 1009.76 1009.78 1009.78 1009.80 1009.83 1009.92 1010.07 1010.33
1016.74 1016.52 1016.27 1016.02 1015.80 1015.61 1015.45 1015.31 1015.16 1014.98 1014.75 1014.44 1014.07 1013.64 1013.17 1012.69 1012.22 1011.80 1011.44 1011.14 1010.91 1010.72 1010.55 1010.39 1010.21 1010.01 1009.79 1009.56 1009.33 1009.12 1008.95 1008.83 1008.76 1008.73 1008.73 1008.75 1008.77 1008.80 1008.83 1008.88 1008.96 1009.11 1009.34
1017.07 1016.82 1016.53 1016.25 1016.00 1015.79 1015.63 1015.50 1015.36 1015.19 1014.97 1014.66 1014.28 1013.84 1013.35 1012.84 1012.35 1011.91 1011.52 1011.20 1010.93 1010.70 1010.49 1010.26 1010.01 1009.73 1009.41 1009.08 1008.75 1008.45 1008.19 1008.00 1007.87 1007.80 1007.78 1007.80 1007.83 1007.88 1007.94 1008.01 1008.11 1008.26 1008.48
1017.41 1017.14 1016.83 1016.52 1016.24 1016.01 1015.83 1015.68 1015.54 1015.36 1015.13 1014.82 1014.43 1013.98 1013.47 1012.95 1012.45 1011.98 1011.57 1011.22 1010.91 1010.64 1010.37 1010.08 1009.76 1009.40 1009.01 1008.59 1008.18 1007.79 1007.46 1007.21 1007.03 1006.92 1006.88 1006.90 1006.94 1007.01 1007.09 1007.20 1007.33 1007.50 1007.73
1017.77 1017.49 1017.16 1016.83 1016.52 1016.26 1016.05 1015.87 1015.70 1015.50 1015.24 1014.92 1014.51 1014.04 1013.52 1012.98 1012.46 1011.96 1011.52 1011.13 1010.77 1010.45 1010.12 1009.77 1009.39 1008.96 1008.50 1008.02 1007.55 1007.11 1006.73 1006.42 1006.20 1006.07 1006.02 1006.02 1006.08 1006.16 1006.27 1006.41 1006.57 1006.77 1007.02
1018.13 1017.85 1017.52 1017.16 1016.83 1016.54 1016.29 1016.07 1015.85 1015.61 1015.32 1014.96 1014.53 1014.04 1013.49 1012.93 1012.37 1011.84 1011.34 1010.90 1010.48 1010.09 1009.70 1009.29 1008.85 1008.37 1007.87 1007.35 1006.85 1006.38 1005.97 1005.64 1005.40 1005.25 1005.18 1005.18 1005.23 1005.33 1005.45 1005.61 1005.80 1006.03 1006.31
1018.47 1018.19 1017.85 1017.49 1017.13 1016.81 1016.52 1016.25 1015.99 1015.70 1015.37 1014.97 1014.51 1013.98 1013.40 1012.80 1012.20 1011.62 1011.06 1010.55 1010.07 1009.60 1009.15 1008.68 1008.19 1007.68 1007.16 1006.63 1006.12 1005.65 1005.24 1004.91 1004.65 1004.49 1004.40 1004.38 1004.42 1004.51 1004.64 1004.80 1005.00 1005.25 1005.55
1018.73 1018.46 1018.12 1017.75 1017.39 1017.04 1016.72 1016.41 1016.10 1015.77 1015.40 1014.96 1014.46 1013.90 1013.29 1012.65 1012.00 1011.35 1010.74 1010.15 1009.59 1009.06 1008.54 1008.02 1007.51 1006.98 1006.45 1005.93 1005.44 1004.98 1004.58 1004.25 1003.99 1003.81 1003.71 1003.66 1003.68 1003.74 1003.85 1004.00 1004.20 1004.45 1004.75
1018.87 1018.60 1018.27 1017.91 1017.54 1017.19 1016.85 1016.51 1016.17 1015.81 1015.40 1014.94 1014.41 1013.82 1013.18 1012.50 1011.80 1011.11 1010.43 1009.78 1009.15 1008.56 1007.99 1007.43 1006.89 1006.36 1005.84 1005.34 1004.86 1004.43 1004.05 1003.72 1003.46 1003.26 1003.13 1003.05 1003.02 1003.05 1003.12 1003.25 1003.42 1003.65 1003.94
Thickness
5787 5787 5786 5784 5782 5780 5778 5776 5773 5772 5770 5767 5764 5762 5760 5761 5761 5760 5760 5759 5757 5756 5755 5754 5752 5750 5749 5747 5746 5744 5742 5740 5740 5738 5735 5736 5737 5737 5736 5736 5735 5734 5733
5786 5787 5786 5785 5783 5781 5779 5777 5775 5774 5772 5770 5768 5766 5764 5763 5762 5761 5761 5760 5758 5757 5756 5755 5753 5751 5749 5747 5746 5744 5741 5739 5739 5735 5730 5728 5729 5733 5734 5733 5732 5732 5731
5788 5788 5788 5786 5785 5782 5781 5781 5778 5776 5774 5773 5770 5767 5764 5763 5761 5760 5760 5760 5759 5758 5757 5756 5753 5751 5749 5747 5745 5744 5741 5737 5737 5736 5731 5725 5722 5725 5729 5730 5730 5729 5729
5795 5792 5791 5789 5788 5787 5786 5784 5781 5778 5776 5774 5770 5766 5762 5759 5760 5760 5760 5760 5760 5759 5757 5756 5754 5752 5750 5748 5746 5745 5742 5739 5735 5734 5733 5731 5728 5723 5722 5725 5726 5726 5726
5800 5798 5797 5795 5794 5792 5789 5786 5783 5780 5778 5775 5772 5768 5764 5763 5762 5761 5760 5759 5759 5759 5757 5756 5754 5752 5750 5748 5746 5745 5743 5740 5737 5734 5732 5729 5727 5725 5721 5719 5721 5722 5723
5805 5803 5802 5798 5795 5794 5791 5788 5784 5781 5779 5776 5773 5770 5766 5764 5761 5760 5759 5758 5758 5758 5757 5756 5753 5751 5749 5748 5746 5745 5742 5740 5738 5735 5733 5730 5726 5724 5721 5718 5717 5717 5719
5808 5805 5802 5798 5796 5794 5792 5789 5785 5781 5780 5777 5774 5771 5769 5766 5763 5761 5759 5758 5757 5756 5756 5756 5753 5751 5749 5747 5745 5743 5741 5740 5737 5735 5733 5730 5728 5726 5723 5719 5716 5715 5716
5810 5808 5806 5803 5800 5797 5794 5791 5786 5783 5781 5778 5775 5773 5771 5768 5765 5763 5761 5759 5757 5756 5756 5755 5753 5751 5749 5747 5745 5742 5740 5739 5737 5735 5732 5730 5728 5726 5723 5720 5716 5713 5713
5811 5810 5808 5806 5803 5799 5796 5793 5788 5785 5782 5780 5776 5774 5771 5769 5767 5765 5762 5760 5759 5757 5755 5754 5751 5750 5748 5746 5744 5741 5739 5737 5735 5733 5731 5729 5727 5725 5723 5720 5718 5713 5709
5811 5810 5809 5807 5805 5802 5799 5795 5792 5787 5784 5781 5778 5776 5773 5771 5768 5765 5763 5761 5759 5757 5755 5753 5751 5749 5747 5744 5742 5740 5738 5735 5733 5732 5729 5727 5726 5724 5722 5720 5717 5714 5710
5811 5810 5809 5808 5805 5803 5800 5796 5792 5789 5786 5783 5779 5776 5774 5771 5768 5765 5763 5761 5759 5756 5754 5752 5750 5747 5745 5743 5741 5739 5736 5733 5731 5729 5727 5725 5724 5722 5720 5718 5715 5712 5709
5811 5810 5808 5806 5803 5801 5799 5796 5793 5790 5787 5784 5780 5777 5775 5771 5768 5765 5763 5761 5758 5756 5754 5751 5749 5746 5744 5742 5739 5737 5734 5731 5729 5727 5725 5723 5722 5719 5717 5715 5712 5710 5707
5808 5807 5805 5803 5801 5800 5798 5796 5794 5791 5788 5784 5780 5777 5774 5771 5768 5765 5763 5760 5757 5754 5752 5750 5747 5744 5742 5740 5737 5735 5732 5729 5727 5725 5722 5720 5718 5715 5714 5712 5710 5707 5705
5805 5803 5802 5801 5800 5799 5797 5794 5792 5791 5788 5784 5780 5776 5773 5771 5768 5765 5762 5759 5756 5753 5750 5748 5745 5743 5741 5738 5736 5733 5730 5727 5724 5722 5720 5717 5715 5713 5711 5708 5706 5703 5700
5802 5801 5800 5799 5798 5796 5794 5793 5790 5789 5786 5782 5778 5775 5773 5770 5767 5763 5760 5757 5754 5751 5749 5746 5743 5741 5738 5736 5733 5731 5728 5724 5721 5719 5717 5715 5712 5710 5708 5705 5702 5699 5695
5799 5799 5798 5797 5795 5793 5792 5790 5788 5786 5784 5780 5777 5774 5771 5768 5764 5761 5757 5754 5751 5748 5746 5743 5741 5738 5736 5734 5731 5728 5724 5721 5718 5715 5713 5711 5709 5707 5704 5702 5699 5696 5692
5798 5797 5797 5796 5795 5793 5791 5787 5785 5783 5779 5776 5773 5771 5768 5765 5762 5759 5755 5752 5749 5746 5743 5740 5737 5734 5733 5730 5727 5724 5720 5717 5714 5711 5709 5707 5705 5702 5700 5697 5694 5691 5689
5794 5795 5795 5794 5793 5792 5788 5785 5781 5778 5774 5771 5769 5767 5765 5761 5758 5755 5752 5748 5745 5742 5739 5736 5733 5730 5728 5725 5722 5719 5715 5713 5710 5708 5705 5702 5700 5698 5694 5692 5689 5687 5685
5791 5792 5793 5792 5790 5786 5784 5780 5776 5773 5770 5767 5765 5763 5761 5758 5754 5751 5748 5745 5740 5736 5733 5730 5727 5724 5723 5720 5717 5713 5710 5707 5705 5703 5700 5697 5695 5692 5689 5685 5683 5681 5679
5786 5787 5787 5786 5783 5780 5779 5774 5770 5768 5765 5764 5762 5759 5756 5753 5750 5747 5744 5740 5736 5732 5729 5726 5723 5719 5716 5714 5711 5707 5704 5700 5698 5696 5694 5692 5689 5686 5683 5679 5677 5675 5673
5780 5781 5781 5779 5777 5775 5772 5768 5765 5763 5763 5761 5758 5754 5751 5748 5746 5742 5738 5734 5731 5727 5723 5720 5717 5713 5711 5708 5705 5702 5698 5695 5692 5690 5688 5686 5683 5680 5677 5674 5672 5670 5667
5772 5773 5772 5772 5771 5770 5766 5762 5760 5760 5758 5755 5752 5748 5745 5743 5740 5735 5731 5728 5724 5720 5716 5713 5709 5707 5705 5702 5699 5696 5693 5690 5687 5684 5682 5680 5677 5674 5671 5668 5665 5663 5659
5763 5764 5764 5763 5763 5762 5760 5757 5756 5755 5751 5748 5745 5742 5739 5736 5733 5729 5725 5721 5717 5713 5709 5706 5703 5701 5698 5696 5694 5691 5688 5685 5682 5680 5677 5674 5671 5667 5664 5661 5658 5655 5652
5753 5754 5755 5754 5754 5755 5753 5752 5751 5749 5745 5741 5738 5736 5733 5730 5726 5722 5719 5715 5711 5708 5703 5699 5697 5695 5693 5690 5688 5685 5682 5679 5676 5673 5671 5667 5664 5660 5657 5654 5651 5648 5645
5744 5745 5745 5746 5747 5747 5747 5747 5745 5743 5739 5735 5732 5730 5728 5723 5719 5715 5713 5711 5708 5705 5700 5697 5693 5689 5688 5686 5683 5679 5676 5674 5671 5666 5663 5660 5656 5652 5649 5646 5644 5641 5638
5735 5736 5737 5739 5740 5740 5740 5740 5739 5737 5732 5728 5726 5723 5721 5717 5714 5710 5706 5704 5702 5700 5696 5693 5690 5687 5685 5682 5677 5674 5671 5667 5663 5658 5655 5652 5648 5645 5642 5639 5637 5634 5631